Location: ???????
(54.9996°N, 37.9529°E)
Time: 13:16:30
(UTC+00:00)

Cosmos 1371 Rocket - Pass Details

Date: 14 April 2024
Orbit: 752 x 787 km, 74.0° (Epoch: 18 May)

Event Time Altitude Azimuth Distance (km) Brightness Sun altitude
Rises 01:12:36 0° 331° (NNW) 3,232 7.3 -10.4°
Reaches altitude 10° 01:14:59 10° 328° (NNW) 2,307 6.5 -10.1°
Maximum altitude 01:20:08 61° 249° (WSW) 872 4.0 -9.5°
Drops below altitude 10° 01:25:18 10° 170° (S) 2,314 6.3 -8.9°
Sets 01:27:42 0° 167° (SSE) 3,243 7.1 -8.6°
